Flugplatz Texel (EHTX)

Hier findest Du alle Informationen zum Flugplatz Texel (EHTX).

Informationen für Piloten zum Flugplatz Texel

Hier findest Du alle relevanten Informationen, die Du als Pilot benötigst, um Texel anzufliegen.

Flugplatz: Texel ICAO-Code: EHTX
Frequenz Turm: 119,300 Mhz GAFOR Gebiet: -
Frequenz Ground: 119,300 Mhz Mogas: ja
Platzrunde: SO 1002 ft Landegebühr: -
Platzhöhe: - Sunrise: 06:33 Uhr UTC
Pisten: 04/22 - 1115 m x 40 m, GRAS Sunset: 17:13 Uhr UTC

Flugwetter am Flugplatz Texel

Die METAR Information stammen aus EDDG (221.34 km entfernt).

METAR Code:
2017/02/23 08:20
EDDG 230820Z 22015KT 8000 RA BKN011 09/08 Q0997 TEMPO 24015G25KT NSW

Flugschulen am Flugplatz Texel

Am Flugplatz Texel gibt es leider keine Flugschule.

Benachbarte Flugplätze und Flugschulen

Es gibt einen weiteren Flugplatz in einem Umkreis von 50 km um den Flugplatz Texel.

Flugplatz Middenmeer UL Platz 35.85 km
Jetzt anmelden

Passwort vergessen

Umfrage Archiv

In welcher Höhe sollte das max. Leergewicht begrenzt werden, wenn ULs 600 kg MTOW hätten?

max. 350,0 kg
49.5 %
keine Begrenzung
14.6 %
max. 375,0 kg
12.2 %
max. 325,0 kg
10.2 %
max. 400,0 kg
8.5 %
max. 300,0 kg
3.1 %
max. 275,0 kg
1.9 %
Stimmen: 588 | Diskussion (46)
Anzeige: Roland Aircraft
Statistik Alle Mitglieder

Aktuell sind 19 Besucher online.

Anzeige: VFR Sprechfunk Simulator


Anzeige: Pocket FMS